Multibeam Report for CV03_01


Ship Name: Celtic Voyager
Chief Scientist: Sheehan, K.
Geological Survey of Ireland
Source Organization: Geological Survey of Ireland (GSI)
Start Date: 2003-11-05
End Date: 2003-12-03


View ISO Metadata

Visit the full NCEI Bathymetry Viewer


Multibeam Bathymetry

Cruise Details

Project: Irish National Seabed Survey
Instrument: Simrad EM1002

Data Quality

Number of Files: 272
Number of Records: 3635994
BATHYMETRY DATA Quantity Percentage
Number of Beams 403594557 100%
Number of Good Beams 402582156 99.75%
Number of Zero Beams 1012401 0.25%
Number of Flagged Beams 0 0%
AMPLITUDE DATA Quantity Percentage
Number of Beams 403594557 100%
Number of Good Beams 402582156 99.75%
Number of Zero Beams 1012401 0.25%
Number of Flagged Beams 0 0%
SIDESCAN DATA Quantity Percentage
Number of Pixels 3723250688 100%
Number of Good Pixels 2266739803 60.88%
Number of Zero Pixels 0 0%
Number of Flagged Pixels 1456510885 39.12%

Navigation Totals

Total Time: 190.571 hours
Total Track Length: 2831.8449 km
Average Speed: 14.86 km/hr (8.0238 knots)

Cruise Bounds

Northern Extent: 53.48875
Southern Extent: 52.99805
Western Extent: -6.246163
Eastern Extent: -5.986666

Limits

Minimum Sonar Depth 1.94 Maximum Sonar Depth 5.88
Minimum Altitude -1.69 Maximum Altitude 206
Minimum Depth 0.63 Maximum Depth 215.94
Minimum Amplitude -64 Maximum Amplitude 8.5
Minimum Sidescan -64 Maximum Sidescan 44.5

File Information

Full Resolution Bathymetry as collected (raw): 271

Files File Size Description
0001_20031106_165657_raw.mb56.gz 9.22MB Simrad multibeam vendor format
0001_20031107_070641_raw.mb56.gz 95.86MB Simrad multibeam vendor format
0002_20031106_145510_raw.mb56.gz 8.36MB Simrad multibeam vendor format
0002_20031107_082235_raw.mb56.gz 57.54MB Simrad multibeam vendor format
0003_20031106_150347_raw.mb56.gz 7.52MB Simrad multibeam vendor format
0003_20031107_092910_raw.mb56.gz 24.36MB Simrad multibeam vendor format
0004_20031106_151241_raw.mb56.gz 13.06MB Simrad multibeam vendor format
0004_20031107_094522_raw.mb56.gz 284.20MB Simrad multibeam vendor format
0005_20031106_152450_raw.mb56.gz 6.66MB Simrad multibeam vendor format
0005_20031107_135853_raw.mb56.gz 310.11MB Simrad multibeam vendor format
0006_20031106_153953_raw.mb56.gz 6.18MB Simrad multibeam vendor format
0006_20031107_172246_raw.mb56.gz 98.19MB Simrad multibeam vendor format
0007_20031107_183115_raw.mb56.gz 94.45MB Simrad multibeam vendor format
0008_20031106_171418_raw.mb56.gz 7.22MB Simrad multibeam vendor format
0008_20031108_070147_raw.mb56.gz 12.85MB Simrad multibeam vendor format
0009_20031108_070847_raw.mb56.gz 105.75MB Simrad multibeam vendor format
0010_20031108_085613_raw.mb56.gz 139.52MB Simrad multibeam vendor format
0011_20031108_103645_raw.mb56.gz 217.89MB Simrad multibeam vendor format
0012_20031108_130607_raw.mb56.gz 217.52MB Simrad multibeam vendor format
0013_20031108_153049_raw.mb56.gz 183.06MB Simrad multibeam vendor format
0014_20031108_174044_raw.mb56.gz 79.72MB Simrad multibeam vendor format
0015_20031108_185400_raw.mb56.gz 77.90MB Simrad multibeam vendor format
0016_20031110_110939_raw.mb56.gz 15.54MB Simrad multibeam vendor format
0017_20031110_112017_raw.mb56.gz 30.28MB Simrad multibeam vendor format
0018_20031110_114603_raw.mb56.gz 19.96MB Simrad multibeam vendor format
0019_20031110_143243_raw.mb56.gz 75.45MB Simrad multibeam vendor format
0020_20031110_154349_raw.mb56.gz 23.27MB Simrad multibeam vendor format
0021_20031110_160356_raw.mb56.gz 129.09MB Simrad multibeam vendor format
0022_20031110_175218_raw.mb56.gz 99.48MB Simrad multibeam vendor format
0023_20031110_190901_raw.mb56.gz 146.59MB Simrad multibeam vendor format
0024_20031112_064014_raw.mb56.gz 91.70MB Simrad multibeam vendor format
0025_20031112_075655_raw.mb56.gz 67.90MB Simrad multibeam vendor format
0026_20031112_084704_raw.mb56.gz 316.68MB Simrad multibeam vendor format
0027_20031112_122126_raw.mb56.gz 311.18MB Simrad multibeam vendor format
0028_20031112_160013_raw.mb56.gz 125.22MB Simrad multibeam vendor format
0029_20031112_172622_raw.mb56.gz 65.23MB Simrad multibeam vendor format
0030_20031113_061808_raw.mb56.gz 55.82MB Simrad multibeam vendor format
0031_20031113_071509_raw.mb56.gz 209.68MB Simrad multibeam vendor format
0032_20031113_093933_raw.mb56.gz 293.57MB Simrad multibeam vendor format
0033_20031113_132230_raw.mb56.gz 109.20MB Simrad multibeam vendor format
0034_20031113_144008_raw.mb56.gz 108.75MB Simrad multibeam vendor format
0035_20031115_062418_raw.mb56.gz 99.57MB Simrad multibeam vendor format
0036_20031115_074158_raw.mb56.gz 23.15MB Simrad multibeam vendor format
0037_20031115_080519_raw.mb56.gz 72.61MB Simrad multibeam vendor format
0038_20031115_090336_raw.mb56.gz 77.07MB Simrad multibeam vendor format
0039_20031115_100233_raw.mb56.gz 72.33MB Simrad multibeam vendor format
0040_20031115_105715_raw.mb56.gz 88.82MB Simrad multibeam vendor format
0041_20031115_120547_raw.mb56.gz 73.38MB Simrad multibeam vendor format
0042_20031115_125603_raw.mb56.gz 81.89MB Simrad multibeam vendor format
0043_20031115_135134_raw.mb56.gz 81.39MB Simrad multibeam vendor format
0044_20031115_144759_raw.mb56.gz 78.78MB Simrad multibeam vendor format
0045_20031115_154312_raw.mb56.gz 100.33MB Simrad multibeam vendor format
0046_20031115_164957_raw.mb56.gz 45.08MB Simrad multibeam vendor format
0047_20031115_172057_raw.mb56.gz 50.37MB Simrad multibeam vendor format
0048_20031116_080523_raw.mb56.gz 45.16MB Simrad multibeam vendor format
0049_20031116_091747_raw.mb56.gz 78.93MB Simrad multibeam vendor format
0050_20031116_101319_raw.mb56.gz 90.70MB Simrad multibeam vendor format
0051_20031116_111458_raw.mb56.gz 73.42MB Simrad multibeam vendor format
0052_20031116_121029_raw.mb56.gz 86.23MB Simrad multibeam vendor format
0053_20031116_131809_raw.mb56.gz 77.08MB Simrad multibeam vendor format
0054_20031116_141353_raw.mb56.gz 51.22MB Simrad multibeam vendor format
0055_20031116_145404_raw.mb56.gz 45.68MB Simrad multibeam vendor format
0056_20031116_152142_raw.mb56.gz 39.96MB Simrad multibeam vendor format
0057_20031116_154556_raw.mb56.gz 39.69MB Simrad multibeam vendor format
0058_20031116_161146_raw.mb56.gz 35.65MB Simrad multibeam vendor format
0059_20031116_164011_raw.mb56.gz 20.64MB Simrad multibeam vendor format
0060_20031116_165706_raw.mb56.gz 6.55MB Simrad multibeam vendor format
0061_20031116_170450_raw.mb56.gz 33.87MB Simrad multibeam vendor format
0062_20031117_060849_raw.mb56.gz 41.60MB Simrad multibeam vendor format
0063_20031117_070103_raw.mb56.gz 48.48MB Simrad multibeam vendor format
0064_20031117_074428_raw.mb56.gz 72.64MB Simrad multibeam vendor format
0065_20031117_084135_raw.mb56.gz 80.93MB Simrad multibeam vendor format
0066_20031117_094427_raw.mb56.gz 66.71MB Simrad multibeam vendor format
0067_20031117_103723_raw.mb56.gz 56.07MB Simrad multibeam vendor format
0068_20031117_112229_raw.mb56.gz 44.53MB Simrad multibeam vendor format
0069_20031117_120237_raw.mb56.gz 36.02MB Simrad multibeam vendor format
0070_20031117_123309_raw.mb56.gz 40.05MB Simrad multibeam vendor format
0071_20031117_130800_raw.mb56.gz 29.27MB Simrad multibeam vendor format
0072_20031117_133153_raw.mb56.gz 37.39MB Simrad multibeam vendor format
0073_20031117_140513_raw.mb56.gz 30.02MB Simrad multibeam vendor format
0074_20031117_143303_raw.mb56.gz 34.68MB Simrad multibeam vendor format
0075_20031117_150121_raw.mb56.gz 2.01MB Simrad multibeam vendor format
0076_20031117_150420_raw.mb56.gz 23.70MB Simrad multibeam vendor format
0077_20031117_153057_raw.mb56.gz 60.65MB Simrad multibeam vendor format
0078_20031117_162210_raw.mb56.gz 61.16MB Simrad multibeam vendor format
0079_20031117_171022_raw.mb56.gz 45.57MB Simrad multibeam vendor format
0080_20031118_063802_raw.mb56.gz 46.26MB Simrad multibeam vendor format
0081_20031118_074414_raw.mb56.gz 79.05MB Simrad multibeam vendor format
0082_20031118_084511_raw.mb56.gz 24.31MB Simrad multibeam vendor format
0083_20031118_090411_raw.mb56.gz 14.14MB Simrad multibeam vendor format
0084_20031118_091606_raw.mb56.gz 19.86MB Simrad multibeam vendor format
0085_20031118_093031_raw.mb56.gz 15.15MB Simrad multibeam vendor format
0086_20031118_094212_raw.mb56.gz 18.61MB Simrad multibeam vendor format
0087_20031118_095744_raw.mb56.gz 14.86MB Simrad multibeam vendor format
0088_20031118_101542_raw.mb56.gz 63.74MB Simrad multibeam vendor format
0089_20031118_110926_raw.mb56.gz 63.87MB Simrad multibeam vendor format
0090_20031118_120254_raw.mb56.gz 74.77MB Simrad multibeam vendor format
0091_20031118_125959_raw.mb56.gz 61.79MB Simrad multibeam vendor format
0092_20031118_134630_raw.mb56.gz 78.70MB Simrad multibeam vendor format
0093_20031118_144542_raw.mb56.gz 61.61MB Simrad multibeam vendor format
0094_20031118_153937_raw.mb56.gz 69.93MB Simrad multibeam vendor format
0095_20031118_163528_raw.mb56.gz 63.34MB Simrad multibeam vendor format
0096_20031118_172516_raw.mb56.gz 52.97MB Simrad multibeam vendor format
0097_20031119_063843_raw.mb56.gz 65.85MB Simrad multibeam vendor format
0098_20031119_071904_raw.mb56.gz 69.98MB Simrad multibeam vendor format
0099_20031119_082208_raw.mb56.gz 124.24MB Simrad multibeam vendor format
0100_20031119_095842_raw.mb56.gz 64.10MB Simrad multibeam vendor format
0101_20031119_105040_raw.mb56.gz 82.92MB Simrad multibeam vendor format
0102_20031119_114914_raw.mb56.gz 81.01MB Simrad multibeam vendor format
0103_20031119_124307_raw.mb56.gz 118.28MB Simrad multibeam vendor format
0104_20031119_135417_raw.mb56.gz 48.38MB Simrad multibeam vendor format
0105_20031119_142912_raw.mb56.gz 72.38MB Simrad multibeam vendor format
0106_20031119_151432_raw.mb56.gz 45.84MB Simrad multibeam vendor format
0107_20031119_154948_raw.mb56.gz 70.67MB Simrad multibeam vendor format
0108_20031119_163240_raw.mb56.gz 30.55MB Simrad multibeam vendor format
0109_20031120_191235_raw.mb56.gz 164.66MB Simrad multibeam vendor format
0110_20031122_102139_raw.mb56.gz 84.10MB Simrad multibeam vendor format
0111_20031122_113013_raw.mb56.gz 70.38MB Simrad multibeam vendor format
0112_20031122_121214_raw.mb56.gz 25.45MB Simrad multibeam vendor format
0113_20031122_123340_raw.mb56.gz 58.13MB Simrad multibeam vendor format
0114_20031122_133313_raw.mb56.gz 65.17MB Simrad multibeam vendor format
0115_20031122_142253_raw.mb56.gz 37.39MB Simrad multibeam vendor format
0116_20031122_144942_raw.mb56.gz 60.25MB Simrad multibeam vendor format
0117_20031122_152446_raw.mb56.gz 84.84MB Simrad multibeam vendor format
0118_20031122_161600_raw.mb56.gz 31.71MB Simrad multibeam vendor format
0119_20031122_163924_raw.mb56.gz 21.47MB Simrad multibeam vendor format
0120_20031122_165528_raw.mb56.gz 32.22MB Simrad multibeam vendor format
0121_20031122_171625_raw.mb56.gz 30.96MB Simrad multibeam vendor format
0122_20031123_073559_raw.mb56.gz 30.38MB Simrad multibeam vendor format
0123_20031123_075933_raw.mb56.gz 32.72MB Simrad multibeam vendor format
0124_20031123_083158_raw.mb56.gz 14.24MB Simrad multibeam vendor format
0125_20031123_084628_raw.mb56.gz 22.18MB Simrad multibeam vendor format
0126_20031123_085835_raw.mb56.gz 38.81MB Simrad multibeam vendor format
0127_20031123_091918_raw.mb56.gz 36.95MB Simrad multibeam vendor format
0128_20031123_094042_raw.mb56.gz 19.20MB Simrad multibeam vendor format
0129_20031123_095502_raw.mb56.gz 44.91MB Simrad multibeam vendor format
0130_20031123_102915_raw.mb56.gz 38.59MB Simrad multibeam vendor format
0131_20031123_105944_raw.mb56.gz 39.80MB Simrad multibeam vendor format
0132_20031123_114133_raw.mb56.gz 49.47MB Simrad multibeam vendor format
0133_20031123_121641_raw.mb56.gz 40.12MB Simrad multibeam vendor format
0134_20031123_124543_raw.mb56.gz 14.41MB Simrad multibeam vendor format
0135_20031123_125623_raw.mb56.gz 54.96MB Simrad multibeam vendor format
0136_20031123_133325_raw.mb56.gz 28.25MB Simrad multibeam vendor format
0137_20031123_135320_raw.mb56.gz 49.08MB Simrad multibeam vendor format
0138_20031123_143245_raw.mb56.gz 57.25MB Simrad multibeam vendor format
0139_20031123_151237_raw.mb56.gz 53.88MB Simrad multibeam vendor format
0140_20031123_155005_raw.mb56.gz 69.52MB Simrad multibeam vendor format
0141_20031123_163215_raw.mb56.gz 39.89MB Simrad multibeam vendor format
0142_20031123_165821_raw.mb56.gz 27.88MB Simrad multibeam vendor format
0143_20031123_171606_raw.mb56.gz 30.76MB Simrad multibeam vendor format
0144_20031124_071841_raw.mb56.gz 28.34MB Simrad multibeam vendor format
0145_20031124_075717_raw.mb56.gz 97.78MB Simrad multibeam vendor format
0146_20031124_085251_raw.mb56.gz 70.01MB Simrad multibeam vendor format
0147_20031124_093853_raw.mb56.gz 62.84MB Simrad multibeam vendor format
0148_20031124_102124_raw.mb56.gz 59.37MB Simrad multibeam vendor format
0149_20031124_110143_raw.mb56.gz 51.11MB Simrad multibeam vendor format
0150_20031124_113709_raw.mb56.gz 44.56MB Simrad multibeam vendor format
0151_20031124_120759_raw.mb56.gz 68.13MB Simrad multibeam vendor format
0152_20031124_125000_raw.mb56.gz 42.33MB Simrad multibeam vendor format
0153_20031124_131649_raw.mb56.gz 64.46MB Simrad multibeam vendor format
0154_20031124_135806_raw.mb56.gz 75.95MB Simrad multibeam vendor format
0155_20031124_143622_raw.mb56.gz 71.00MB Simrad multibeam vendor format
0156_20031124_152746_raw.mb56.gz 66.58MB Simrad multibeam vendor format
0157_20031124_160403_raw.mb56.gz 52.26MB Simrad multibeam vendor format
0158_20031124_163432_raw.mb56.gz 37.67MB Simrad multibeam vendor format
0159_20031124_165607_raw.mb56.gz 27.12MB Simrad multibeam vendor format
0160_20031124_172107_raw.mb56.gz 49.32MB Simrad multibeam vendor format
0161_20031125_075738_raw.mb56.gz 144.38MB Simrad multibeam vendor format
0162_20031125_092007_raw.mb56.gz 79.59MB Simrad multibeam vendor format
0163_20031125_102202_raw.mb56.gz 65.27MB Simrad multibeam vendor format
0164_20031125_111539_raw.mb56.gz 59.95MB Simrad multibeam vendor format
0165_20031125_120925_raw.mb56.gz 50.10MB Simrad multibeam vendor format
0166_20031125_141302_raw.mb56.gz 68.00MB Simrad multibeam vendor format
0167_20031125_150054_raw.mb56.gz 64.10MB Simrad multibeam vendor format
0168_20031125_155003_raw.mb56.gz 65.77MB Simrad multibeam vendor format
0169_20031125_164130_raw.mb56.gz 66.68MB Simrad multibeam vendor format
0170_20031125_173419_raw.mb56.gz 32.88MB Simrad multibeam vendor format
0171_20031126_071359_raw.mb56.gz 141.64MB Simrad multibeam vendor format
0172_20031126_085125_raw.mb56.gz 57.40MB Simrad multibeam vendor format
0173_20031126_093145_raw.mb56.gz 75.68MB Simrad multibeam vendor format
0174_20031126_102522_raw.mb56.gz 67.26MB Simrad multibeam vendor format
0175_20031126_111046_raw.mb56.gz 49.77MB Simrad multibeam vendor format
0176_20031126_115617_raw.mb56.gz 64.29MB Simrad multibeam vendor format
0177_20031126_124353_raw.mb56.gz 39.16MB Simrad multibeam vendor format
0178_20031126_131430_raw.mb56.gz 44.73MB Simrad multibeam vendor format
0179_20031126_134724_raw.mb56.gz 33.86MB Simrad multibeam vendor format
0180_20031126_141533_raw.mb56.gz 44.38MB Simrad multibeam vendor format
0181_20031126_145318_raw.mb56.gz 96.83MB Simrad multibeam vendor format
0182_20031126_160036_raw.mb56.gz 33.46MB Simrad multibeam vendor format
0183_20031126_162837_raw.mb56.gz 37.88MB Simrad multibeam vendor format
0184_20031126_165638_raw.mb56.gz 39.87MB Simrad multibeam vendor format
0185_20031126_172738_raw.mb56.gz 78.11MB Simrad multibeam vendor format
0186_20031127_070546_raw.mb56.gz 53.60MB Simrad multibeam vendor format
0187_20031127_080123_raw.mb56.gz 141.44MB Simrad multibeam vendor format
0188_20031127_093548_raw.mb56.gz 97.29MB Simrad multibeam vendor format
0189_20031127_103733_raw.mb56.gz 76.26MB Simrad multibeam vendor format
0190_20031127_112448_raw.mb56.gz 54.88MB Simrad multibeam vendor format
0191_20031127_115841_raw.mb56.gz 51.70MB Simrad multibeam vendor format
0192_20031127_123101_raw.mb56.gz 97.33MB Simrad multibeam vendor format
0193_20031127_134159_raw.mb56.gz 68.60MB Simrad multibeam vendor format
0194_20031127_143307_raw.mb56.gz 87.79MB Simrad multibeam vendor format
0195_20031127_154119_raw.mb56.gz 64.27MB Simrad multibeam vendor format
0196_20031127_163133_raw.mb56.gz 113.79MB Simrad multibeam vendor format
0197_20031127_175622_raw.mb56.gz 55.34MB Simrad multibeam vendor format
0198_20031128_071210_raw.mb56.gz 74.52MB Simrad multibeam vendor format
0199_20031128_082508_raw.mb56.gz 100.66MB Simrad multibeam vendor format
0200_20031128_095052_raw.mb56.gz 61.15MB Simrad multibeam vendor format
0201_20031128_104250_raw.mb56.gz 92.24MB Simrad multibeam vendor format
0202_20031128_120421_raw.mb56.gz 73.03MB Simrad multibeam vendor format
0203_20031128_131022_raw.mb56.gz 116.02MB Simrad multibeam vendor format
0204_20031128_143923_raw.mb56.gz 99.25MB Simrad multibeam vendor format
0205_20031128_155742_raw.mb56.gz 102.68MB Simrad multibeam vendor format
0206_20031128_171359_raw.mb56.gz 82.47MB Simrad multibeam vendor format
0207_20031128_181542_raw.mb56.gz 174.04MB Simrad multibeam vendor format
0208_20031129_103025_raw.mb56.gz 170.29MB Simrad multibeam vendor format
0209_20031129_120837_raw.mb56.gz 29.48MB Simrad multibeam vendor format
0210_20031129_123314_raw.mb56.gz 45.98MB Simrad multibeam vendor format
0211_20031129_130500_raw.mb56.gz 45.05MB Simrad multibeam vendor format
0212_20031129_133537_raw.mb56.gz 52.07MB Simrad multibeam vendor format
0213_20031129_141108_raw.mb56.gz 43.97MB Simrad multibeam vendor format
0214_20031129_144153_raw.mb56.gz 38.61MB Simrad multibeam vendor format
0215_20031129_151047_raw.mb56.gz 46.18MB Simrad multibeam vendor format
0216_20031129_154330_raw.mb56.gz 33.99MB Simrad multibeam vendor format
0217_20031129_160723_raw.mb56.gz 38.38MB Simrad multibeam vendor format
0218_20031129_163626_raw.mb56.gz 29.37MB Simrad multibeam vendor format
0219_20031129_165740_raw.mb56.gz 23.31MB Simrad multibeam vendor format
0220_20031129_171805_raw.mb56.gz 92.67MB Simrad multibeam vendor format
0221_20031130_071949_raw.mb56.gz 55.51MB Simrad multibeam vendor format
0222_20031130_080833_raw.mb56.gz 72.14MB Simrad multibeam vendor format
0223_20031130_090148_raw.mb56.gz 73.54MB Simrad multibeam vendor format
0224_20031130_095450_raw.mb56.gz 58.49MB Simrad multibeam vendor format
0225_20031130_104016_raw.mb56.gz 48.81MB Simrad multibeam vendor format
0226_20031130_112000_raw.mb56.gz 103.81MB Simrad multibeam vendor format
0227_20031130_123741_raw.mb56.gz 49.83MB Simrad multibeam vendor format
0228_20031130_133153_raw.mb56.gz 55.80MB Simrad multibeam vendor format
0229_20031130_143644_raw.mb56.gz 55.21MB Simrad multibeam vendor format
0230_20031130_153110_raw.mb56.gz 50.58MB Simrad multibeam vendor format
0231_20031130_162538_raw.mb56.gz 32.79MB Simrad multibeam vendor format
0232_20031130_170324_raw.mb56.gz 78.19MB Simrad multibeam vendor format
0233_20031130_181749_raw.mb56.gz 73.15MB Simrad multibeam vendor format
0234_20031201_070710_raw.mb56.gz 55.29MB Simrad multibeam vendor format
0235_20031201_080115_raw.mb56.gz 55.59MB Simrad multibeam vendor format
0236_20031201_085008_raw.mb56.gz 92.30MB Simrad multibeam vendor format
0237_20031201_100513_raw.mb56.gz 64.45MB Simrad multibeam vendor format
0238_20031201_110240_raw.mb56.gz 94.63MB Simrad multibeam vendor format
0239_20031201_122045_raw.mb56.gz 81.34MB Simrad multibeam vendor format
0240_20031201_132728_raw.mb56.gz 80.14MB Simrad multibeam vendor format
0241_20031202_141039_raw.mb56.gz 135.95MB Simrad multibeam vendor format
0242_20031202_152351_raw.mb56.gz 11.86MB Simrad multibeam vendor format
0243_20031202_160635_raw.mb56.gz 50.44MB Simrad multibeam vendor format
0244_20031202_165051_raw.mb56.gz 41.81MB Simrad multibeam vendor format
0245_20031202_172946_raw.mb56.gz 21.10MB Simrad multibeam vendor format
0246_20031202_175341_raw.mb56.gz 22.23MB Simrad multibeam vendor format
0247_20031202_181419_raw.mb56.gz 51.31MB Simrad multibeam vendor format
0248_20031203_124951_raw.mb56.gz 62.96MB Simrad multibeam vendor format
0249_20031203_133729_raw.mb56.gz 22.33MB Simrad multibeam vendor format
0250_20031203_135322_raw.mb56.gz 24.68MB Simrad multibeam vendor format
0251_20031203_141024_raw.mb56.gz 19.72MB Simrad multibeam vendor format
0252_20031203_142428_raw.mb56.gz 25.98MB Simrad multibeam vendor format
0253_20031203_144104_raw.mb56.gz 19.91MB Simrad multibeam vendor format
0254_20031203_145502_raw.mb56.gz 23.80MB Simrad multibeam vendor format
0255_20031203_150942_raw.mb56.gz 16.85MB Simrad multibeam vendor format
0256_20031203_152106_raw.mb56.gz 38.14MB Simrad multibeam vendor format
0257_20031203_154338_raw.mb56.gz 8.95MB Simrad multibeam vendor format
0258_20031203_155133_raw.mb56.gz 8.78MB Simrad multibeam vendor format
0259_20031203_155807_raw.mb56.gz 30.49MB Simrad multibeam vendor format
0260_20031203_162747_raw.mb56.gz 22.56MB Simrad multibeam vendor format
0261_20031203_164720_raw.mb56.gz 24.31MB Simrad multibeam vendor format
0262_20031203_170953_raw.mb56.gz 8.89MB Simrad multibeam vendor format
0263_20031203_171935_raw.mb56.gz 5.55MB Simrad multibeam vendor format
0264_20031203_172620_raw.mb56.gz 6.88MB Simrad multibeam vendor format

Metadata Files: 1

Files File Size Description
CV03_01_Multibeam.xml NGDC created ISO metadata